User: anonymous
Location: eljas
(40.1958°N, 6.8661°W)
Time: 06:47:53
(UTC+02:00)
Language:

Okean O Rocket - Orbit

View from above orbital plane
View from above orbital plane
View from above satellite
View from above satellite

Ground track
Ground track

The orbit data is extracted from the following two-line orbital elements,

1 25861U 99039B   14294.79096127  .00001000  00000-0  14617-3 0  7703
2 25861 097.9672 252.1356 0014744 331.3218 088.3614 14.77820420822567
Epoch (UTC): 21 October 2014 18:58:59
Eccentricity: 0.0014744
inclination: 97.9672°
perigee height: 626 km
apogee height: 646 km
right ascension of ascending node: 252.1356°
argument of perigee: 331.3218°
revolutions per day: 14.77820420
mean anomaly at epoch: 88.3614°
orbit number at epoch: 82256

The dashed part of the orbit path shows where the satellite is in the earth's shadow,  

DLR